Flag for U.S.A. Weather past 2 weeks in Galveston, Texas, U.S.A.

Now
81 °F

Broken clouds.


Feels Like: 87 °F
Forecast: 81 / 90 °F
Wind: No wind

Location: Scholes Field

Current Time: Jul 24, 2014 at 8:20:09 AM

Latest Report: Jul 24, 2014 at 7:52 AM


Visibility: 10 mi

Pressure: 30.01 "Hg

Humidity: 82%

Dew point: 75 °F

Location of GalvestonLocation

Historic Weather in Galveston — Graph

°F

Galveston temperature yesterday

Maximum temperature yesterday: 90 °F (at 12:52 PM)
Minimum temperature yesterday: 80 °F (at 8:52 AM)
Average temperature yesterday: 85 °F

Past Weeks' High & Low Weather Summary

 TemperatureHumidityPressure
High91 °F (Jul 12, 3:52 PM)97% (Jul 20, 6:52 AM)30.17 "Hg (Jul 20, 6:52 AM)
Low75 °F (Jul 19, 4:52 AM)54% (Jul 12, 3:52 PM)29.84 "Hg (Jul 18, 4:52 AM)
Average84 °F77%30.01 "Hg
* Reported Jul 9 7:52 AM — Jul 24 6:52 AM, Galveston, Weather by CustomWeather, © 2014

Note: Actual official high and low records may vary slightly from our data, if they occured in-between our weather recording intervals... More about our weather records

Advertising

Galveston weather history for previous 24 hours

 ConditionsComfort  
Time TempWeatherWind HumidityBarometerVisibility
6:52 AM
Jul 24
80 °FMostly cloudy.No wind81%29.99 "Hg10 mi
5:52 AM79 °FPassing clouds.No wind82%29.97 "Hg10 mi
4:52 AM78 °FPassing clouds.5 mph84%29.96 "Hg10 mi
3:52 AM78 °FClear.6 mph84%29.98 "Hg10 mi
2:52 AM79 °FClear.6 mph82%29.97 "Hg10 mi
1:52 AM77 °FThundershowers. Partly cloudy.5 mph94%30.00 "Hg10 mi
1:00 AM80 °FThundershowers. Passing clouds.18 mph76%30.02 "Hg9 mi
11:52 PM
Jul 23
83 °FClear.5 mph77%30.00 "Hg10 mi
10:52 PM84 °FClear.No wind74%30.02 "Hg10 mi
9:52 PM84 °FClear.5 mph72%30.01 "Hg10 mi
8:52 PM84 °FSunny.3 mph72%30.00 "Hg10 mi
7:52 PM85 °FSunny.5 mph68%29.96 "Hg10 mi
6:52 PM87 °FSunny.8 mph65%29.96 "Hg10 mi
5:52 PM88 °FSunny.9 mph65%29.95 "Hg10 mi
4:52 PM89 °FSunny.5 mph57%29.98 "Hg10 mi
3:52 PM89 °FPassing clouds.7 mph63%30.01 "Hg10 mi
2:52 PM89 °FPassing clouds.10 mph63%30.03 "Hg10 mi
1:52 PM89 °FPartly sunny.8 mph63%30.04 "Hg10 mi
12:52 PM90 °FScattered clouds.5 mph63%30.05 "Hg10 mi
11:52 AM85 °FCloudy.6 mph70%30.06 "Hg10 mi
11:02 AM85 °FScattered clouds.N/A72%30.06 "Hg10 mi
10:01 AM84 °FBroken clouds.7 mph74%30.07 "Hg10 mi
9:52 AM83 °FThundershowers. Broken clouds.8 mph77%30.06 "Hg10 mi
8:52 AM80 °FMostly cloudy.9 mph81%30.06 "Hg10 mi
Weather by CustomWeather, © 2014

See weather overviewHow to use our weather pages